Weather History for Milton, FL

Change the Weather History Date:

Friday, November 25, 2011

  Actual Average (KNSE) Record (KNSE)
Temperature  
Mean Temperature 60 °F -  
Max Temperature 73 °F 66 °F 80 °F (2010)
Min Temperature 46 °F 46 °F 30 °F (2012)
Degree Days  
Heating Degree Days 6    
Growing Degree Days 10 (Base 50)    
Moisture  
Dew Point 47 °F    
Average Humidity 67    
Maximum Humidity 83    
Minimum Humidity 48    
Precipitation  
Precipitation 0.00 in - - ()
Sea Level Pressure  
Sea Level Pressure 30.20 in    
Wind  
Wind Speed 9 mph (ESE)    
Max Wind Speed 14 mph    
Max Gust Speed 20 mph    
Visibility 10 miles    
Events      
Averages and records for this station are not official NWS values.
T = Trace of Precipitation, MM = Missing Value Source: NWS Daily Summary

Daily Weather History Graph

Daily Weather History Graph

Search for Another Location

Airport:

Trip Planner

Search our weather history database for the weather conditions in past years. The results will help you decide how hot, cold, wet, or windy it might be!

Date:

Astronomy

Nov. 25, 2011 Rise Set
Actual Time 6:22 AM CST 4:47 PM CST
Civil Twilight 5:56 AM CST 5:13 PM CST
Nautical Twilight 5:27 AM CST 5:42 PM CST
Astronomical Twilight 4:58 AM CST 6:11 PM CST
Moon 6:46 AM CST (11/25) 5:18 PM CST (11/25)
Length of Visible Light 11h 16m
Length of Day
10h 24m
New Moon, 0% of the Moon is Illuminated
Nov 25
New Moon
Dec 2
First Quarter
Dec 10
Full
Dec 17
Last Quarter
Dec 24
New

Hourly Weather History & Observations

Time (CST) Temp. Windchill Dew Point Humidity Pressure Visibility Wind Dir Wind Speed Gust Speed Precip Events Conditions
12:56 AM 46.9 °F - 37.9 °F 71% 30.24 in 10.0 mi ENE 8.1 mph - N/A   Clear
1:56 AM 48.0 °F - 37.9 °F 68% 30.24 in 10.0 mi East 9.2 mph - N/A   Clear
2:56 AM 46.9 °F - 39.0 °F 74% 30.25 in 10.0 mi East 8.1 mph - N/A   Clear
3:56 AM 46.9 °F - 41.0 °F 80% 30.25 in 10.0 mi ENE 8.1 mph - N/A   Clear
4:56 AM 46.0 °F 41.4 °F 41.0 °F 83% 30.25 in 10.0 mi ENE 9.2 mph - N/A   Clear
5:56 AM 46.9 °F - 41.0 °F 80% 30.25 in 10.0 mi East 12.7 mph - N/A   Clear
6:56 AM 48.0 °F - 43.0 °F 83% 30.26 in 10.0 mi East 9.2 mph - N/A   Clear
7:56 AM 54.0 °F - 46.0 °F 75% 30.27 in 10.0 mi East 10.4 mph - N/A   Clear
8:56 AM 59.0 °F - 46.9 °F 64% 30.27 in 10.0 mi East 8.1 mph - N/A   Clear
9:56 AM 64.9 °F - 48.9 °F 56% 30.26 in 10.0 mi ESE 12.7 mph - N/A   Clear
10:56 AM 70.0 °F - 51.1 °F 51% 30.24 in 10.0 mi SE 12.7 mph - N/A   Clear
11:56 AM 71.1 °F - 52.0 °F 51% 30.22 in 10.0 mi SSE 13.8 mph - N/A   Scattered Clouds
12:56 PM 73.0 °F - 52.0 °F 48% 30.19 in 10.0 mi South 13.8 mph 18.4 mph N/A   Mostly Cloudy
1:56 PM 71.1 °F - 51.1 °F 49% 30.17 in 10.0 mi ESE 12.7 mph 19.6 mph N/A   Scattered Clouds
2:56 PM 70.0 °F - 50.0 °F 49% 30.16 in 10.0 mi SE 12.7 mph - N/A   Clear
3:56 PM 69.1 °F - 50.0 °F 51% 30.15 in 10.0 mi ESE 8.1 mph - N/A   Clear
4:56 PM 64.0 °F - 48.9 °F 58% 30.15 in 10.0 mi ESE 6.9 mph - N/A   Partly Cloudy
5:56 PM 62.1 °F - 48.9 °F 62% 30.15 in 10.0 mi SE 6.9 mph - N/A   Clear
6:56 PM 60.1 °F - 50.0 °F 69% 30.16 in 10.0 mi ESE 6.9 mph - N/A   Clear
7:56 PM 57.9 °F - 50.0 °F 75% 30.16 in 10.0 mi ESE 5.8 mph - N/A   Clear
8:56 PM 59.0 °F - 51.1 °F 75% 30.16 in 10.0 mi East 8.1 mph - N/A   Clear
9:56 PM 59.0 °F - 51.1 °F 75% 30.15 in 10.0 mi East 8.1 mph - N/A   Mostly Cloudy
10:56 PM 59.0 °F - 52.0 °F 78% 30.13 in 10.0 mi East 9.2 mph - N/A   Overcast
11:56 PM 59.0 °F - 51.1 °F 75% 30.12 in 10.0 mi ESE 5.8 mph - N/A   Mostly Cloudy